Flag for Germany Weather past 2 weeks in Friesoythe, Lower Saxony, Germany

Now
63 °F

Mild.


Feels Like: 63 °F
Forecast: 54 / 75 °F
Wind: 5 mph from Southwest

Location: Meppen-Mil

Current Time: Aug 4, 2015 at 8:36:56 PM

Latest Report: Aug 4, 2015 at 7:20 PM


Visibility: 4 mi

Pressure: 29.98 "Hg

Humidity: 88%

Dew point: 59 °F

Location of FriesoytheLocation

Historic Weather in Friesoythe — Graph

°F

Friesoythe temperature yesterday

Maximum temperature yesterday: 90 °F (at 4:20 PM)
Minimum temperature yesterday: 55 °F (at 6:20 AM)
Average temperature yesterday: 78 °F

Past Weeks' High & Low Weather Summary

 TemperatureHumidityPressure
High90 °F (Aug 3, 4:20 PM)94% (Jul 20, 9:20 PM)30.12 "Hg (Jul 20, 9:20 PM)
Low48 °F (Jul 31, 6:20 AM)24% (Aug 3, 4:20 PM)29.39 "Hg (Jul 25, 4:20 PM)
Average63 °F72%29.80 "Hg
* Reported Jul 20 7:20 PM — Aug 4 7:20 PM, Friesoythe, Weather by CustomWeather, © 2015

Note: Actual official high and low records may vary slightly from our data, if they occured in-between our weather recording intervals... More about our weather records

Advertising

Friesoythe weather history for previous 24 hours

 ConditionsComfort  
Time TempWeatherWind HumidityBarometerVisibility
7:20 PM
Tue, Aug 4
63 °FMild.5 mph88%29.98 "Hg4 mi
6:20 PM63 °FMild.8 mph88%29.98 "Hg4 mi
5:20 PM63 °FMild.9 mph94%29.95 "Hg2 mi
4:20 PM66 °FDrizzle. Fog.6 mph88%29.92 "Hg2 mi
3:20 PM66 °FDrizzle. Fog.6 mph88%29.92 "Hg2 mi
2:20 PM66 °FLight rain. Broken clouds.5 mph88%29.92 "Hg6 mi
1:20 PM68 °FLight rain. Partly sunny.5 mph83%29.89 "HgN/A
12:20 PM68 °FLight rain. Partly sunny.2 mph83%29.89 "HgN/A
11:20 AM66 °FLight rain. Partly sunny.2 mph83%29.86 "HgN/A
10:20 AM64 °FLight rain. Partly sunny.2 mph88%29.83 "HgN/A
9:20 AM64 °FLight rain. Partly sunny.7 mph83%29.83 "HgN/A
8:20 AM63 °FLight rain. Partly sunny.5 mph88%29.86 "HgN/A
7:20 AM66 °FLight rain. Partly cloudy.6 mph68%29.86 "HgN/A
6:20 AM64 °FPassing clouds.6 mph73%29.86 "HgN/A
5:20 AM63 °FMild.3 mph73%29.83 "Hg5 mi
4:20 AM64 °FMild.5 mph68%29.83 "Hg5 mi
3:20 AM63 °FMild.2 mph77%29.86 "Hg5 mi
2:20 AM64 °FMild.5 mph73%29.89 "Hg5 mi
1:20 AM64 °FMild.7 mph73%29.92 "Hg5 mi
12:20 AM70 °FMild.6 mph64%29.92 "Hg5 mi
11:20 PM
Mon, Aug 3
72 °FMild.5 mph69%29.92 "Hg4 mi
10:20 PM73 °FMild.5 mph57%29.92 "Hg5 mi
9:20 PM75 °FMild.2 mph50%29.89 "Hg6 mi
8:20 PM84 °FPleasantly warm.3 mph33%29.89 "Hg6 mi
Weather by CustomWeather, © 2015

See weather overviewHow to use our weather pages